{"data":{"norad_id":68216,"epoch":"2026-09-20T02:52:24.316032Z","epoch_age_seconds":84996,"freshness":"FRESH","line1":"1 68216U 26053K   26263.11972588  .00012906  00000+0  40131-3 0  9998","line2":"2 68216  97.2849 136.8812 0002247  96.2653 263.8845 15.33451935 30018","mean_motion":15.33451935,"eccentricity":0.0002247,"inclination_deg":97.2849,"raan_deg":136.8812,"arg_perigee_deg":96.2653,"mean_anomaly_deg":263.8845,"bstar":0.00040131,"rev_number":3001,"period_min":93.905779968252,"perigee_km":463.98477057625,"apogee_km":467.06031117392,"semimajor_km":6843.6595408751,"source":"CELESTRAK","updated_at":"2026-09-20T09:00:43.834457Z"}}